Regional Weather Roundup
Issued by NWS

Home | Current Version | Previous Version | Text Only | Print | Product List | Glossary Off
Versions: 1 2 3 4 5 6 7 8 9 10 11 12 13 14 15 16 17 18 19 20 21 22 23 24 25 26 27 28 29 30 31 32 33 34 35 36 37 38 39 40 41 42 43 44 45 46 47 48 49 50

000
ASUS43 KMKX 010500
RWRWI

WISCONSIN REGIONAL WEATHER ROUNDUP
NATIONAL WEATHER SERVICE MILWAUKEE/SULLIVAN WI
1200 AM CDT FRI AUG 01 2014

NOTE: "FAIR" INDICATES FEW OR NO CLOUDS BELOW 12,000 FEET WITH NO
SIGNIFICANT WEATHER AND/OR OBSTRUCTIONS TO VISIBILITY.

WIZ001-002-006>008-014>016-023>028-010600-
NORTHWEST WISCONSIN

CITY           SKY/WX    TMP DP  RH WIND       PRES   REMARKS
SUPERIOR ARPT  NOT AVBL
ASHLAND        CLEAR     59  57  93 SW3       29.99S
HAYWARD        MOCLDY    59  58  96 N3        30.01R
SIREN          PTCLDY    63  62  96 CALM      30.00S
RICE LAKE      PTCLDY    62  60  93 CALM      30.02S FOG
LADYSMITH      NOT AVBL
EAU CLAIRE     MOCLDY    68  61  78 SW7       30.00S
MENOMONIE      CLEAR     66  58  74 SW3       30.01S
NEW RICHMOND   CLEAR     62  56  82 CALM      30.02R
OSCEOLA        NOT AVBL
$$

WIZ003>005-009-010-017-018-010600-
NORTH CENTRAL WISCONSIN

CITY           SKY/WX    TMP DP  RH WIND       PRES   REMARKS
WOODRUFF       CLEAR     57  48  71 CALM      30.01S
RHINELANDER    CLEAR     56  55  97 W3        30.03R FOG
EAGLE RIVER    NOT AVBL
LAND O LAKES   NOT AVBL
PHILLIPS       PTCLDY    58  58  97 CALM      30.01S
TOMAHAWK       NOT AVBL
MEDFORD        NOT AVBL
MERRILL        NOT AVBL
$$

WIZ029-030-035-036-043>047-010600-
CENTRAL WISCONSIN

CITY           SKY/WX    TMP DP  RH WIND       PRES   REMARKS
WAUSAU         CLEAR     64  60  87 N6        30.00R
MOSINEE        CLEAR     63  61  94 W3        30.03R
MARSHFIELD     CLEAR     64  60  87 W5        30.02R
STEVENS POINT  NOT AVBL
WAUPACA        CLEAR     64  59  83 CALM      30.01R
WAUTOMA        NOT AVBL
WISC RAPIDS    CLEAR     63  59  87 CALM      30.03R
CAMP DOUGLAS   NOT AVBL
$$

WIZ011>013-019>022-031-037>040-048>050-010600-
NORTHEAST WISCONSIN

CITY           SKY/WX    TMP DP  RH WIND       PRES   REMARKS
ANTIGO         PTCLDY    54  53  95 NE3       30.02S
STURGEON BAY   CLEAR     61  55  82 CALM      30.00R
GREEN BAY      PTCLDY    63  60  90 W6        29.99R
MANITOWOC      NOT AVBL
APPLETON       NOT AVBL
CLINTONVILLE   CLEAR     61  57  88 CALM      30.00R
OSHKOSH        MOCLDY    65  63  93 S5        30.01R
$$

WIZ032>034-041-042-053>061-010600-
SOUTHWEST WISCONSIN

CITY           SKY/WX    TMP DP  RH WIND       PRES   REMARKS
LA CROSSE      CLEAR     68  63  84 S6        30.02R
SPARTA         NOT AVBL
VIROQUA        NOT AVBL
BOSCOBEL       CLEAR     61  59  93 CALM      30.04S
PRAIRIE DU CHI NOT AVBL
PLATTEVILLE    NOT AVBL
$$

WIZ056-057-062-063-064-067-068-010600-
SOUTH CENTRAL WISCONSIN

CITY           SKY/WX    TMP DP  RH WIND       PRES   REMARKS
BARABOO/DELLS  NOT AVBL
LONE ROCK      NOT AVBL
WATERTOWN      NOT AVBL
MADISON        CLEAR     64  59  83 CALM      30.03R
MIDDLETON      NOT AVBL
MONROE         NOT AVBL
JANESVILLE     CLEAR     64  55  72 CALM      30.04R
$$

WIZ051-052-058>065-066-070>072-010600-
SOUTHEAST WISCONSIN

CITY           SKY/WX    TMP DP  RH WIND       PRES   REMARKS
MILWAUKEE      CLEAR     70  58  65 W5        30.03R
WAUKESHA       NOT AVBL
MILWAUKEE/TIMM NOT AVBL
RACINE         CLEAR     67  59  75 W5        30.05R
BURLINGTON     NOT AVBL
KENOSHA        CLEAR     63  58  83 SW5       30.04R
FOND DU LAC    CLEAR     65  60  84 SW6       30.02R
SHEBOYGAN      CLEAR     63  60  90 W3        30.01R
WEST BEND      NOT AVBL
JUNEAU         NOT AVBL
$$

LSZ147-162-010600-
LAKE SUPERIOR

STATION/POSITION TIME  TEMP    WIND        PRES    WAVE
                       AIR SEA DIR/SP/G            HT/PER
                 (UTC) (F)     (DEG/KT/KT) (MB)    (FT/S)
W MID LAKE BUOY  0350   54 45  180/  6/  6 1014.9R   0
PORT WING        0400   62     140/  3/  5 1015.2
SAXON HARBOR     0440          190/  2/  4 1015.2R
$$

LMZ867-665-643>646-010600-
LAKE MICHIGAN

STATION/POSITION TIME  TEMP    WIND        PRES    WAVE
                       AIR SEA DIR/SP/G            HT/PER
                 (UTC) (F)     (DEG/KT/KT) (MB)    (FT/S)
N MID LAKE BUOY  0350   59 55  260/  6/  6 1014.8S   2/ 4
NORTHPORT PIER   0400   65      60/  2/  3 1015.2R
SISTER BAY       0356   66      40/  3/  6   N/A
ALGOMA LAKESHORE 0421             CALM       N/A
KEWAUNEE LAKESHO 0400   64     300/  5/  6 1014.2S
SHEBOYGAN LAKESH 0400   71     240/  6/  7 1015.5R
PORT WASHINGTON  0400   70     290/  2/  3 1016.3S
ATWATER BUOY     0400   70     230/  6     1017.2R
MILWAUKEE LAKESH 0400   74     260/  5/  6   N/A
S MID LAKE BUOY  0350   66 63  210/  8/  8 1016.4F   0
KENOSHA   LAKESH 0400   73     240/  6/  9 1016.3S
$$

TC  - TEMPERATURE IN CELSIUS
VSB - VISIBILITY IN STATUTE MILES
WCI - WIND CHILL INDEX
HX  - HEAT INDEX




USA.gov is the U.S. government's official web portal to all federal, state and local government web resources and services.